Flag for U.S.A. Weather past 2 weeks in Missoula, Montana, U.S.A.

Now
72 °F

Overcast.


Feels Like: 77 °F
Forecast: 53 / 73 °F
Wind: 15 mph from Southwest

Location: Missoula International Airport

Current Time: Sep 19, 2014 at 4:44:38 PM

Latest Report: Sep 19, 2014 at 3:53 PM


Visibility: 10 mi

Pressure: 30.01 "Hg

Humidity: 37%

Dew point: 44 °F

Location of MissoulaLocation

Historic Weather in Missoula — Graph

°F

Missoula temperature yesterday

Maximum temperature yesterday: 81 °F (at 4:53 PM)
Minimum temperature yesterday: 54 °F (at 3:53 AM)
Average temperature yesterday: 65 °F

Past Weeks' High & Low Weather Summary

 TemperatureHumidityPressure
High86 °F (Sep 7, 5:53 PM)89% (Sep 11, 7:53 AM)30.53 "Hg (Sep 11, 7:53 AM)
Low26 °F (Sep 12, 6:53 AM)7% (Sep 8, 3:53 PM)29.68 "Hg (Sep 18, 5:53 AM)
Average57 °F48%30.04 "Hg
* Reported Sep 4 2:53 PM — Sep 19 2:53 PM, Missoula, Weather by CustomWeather, © 2014

Note: Actual official high and low records may vary slightly from our data, if they occured in-between our weather recording intervals... More about our weather records

Advertising

Missoula weather history for previous 24 hours

 ConditionsComfort  
Time TempWeatherWind HumidityBarometerVisibility
2:53 PM
Sep 19
71 °FPartly sunny.15 mph38%30.01 "Hg10 mi
1:53 PM69 °FMostly cloudy.13 mph41%30.01 "Hg10 mi
12:53 PM69 °FOvercast.9 mph41%30.02 "Hg10 mi
11:53 AM71 °FMostly cloudy.8 mph39%30.00 "Hg10 mi
10:53 AM67 °FPartly sunny.9 mph47%30.00 "Hg10 mi
9:53 AM65 °FMostly cloudy.8 mph52%30.00 "Hg10 mi
8:53 AM65 °FBroken clouds.8 mph52%29.96 "Hg10 mi
7:53 AM61 °FPassing clouds.No wind60%29.94 "Hg10 mi
6:53 AM63 °FOvercast.13 mph56%29.91 "Hg10 mi
5:53 AM63 °FMostly cloudy.9 mph54%29.89 "Hg10 mi
4:53 AM65 °FOvercast.8 mph51%29.87 "Hg10 mi
3:53 AM63 °FOvercast.3 mph54%29.87 "Hg10 mi
2:53 AM62 °FOvercast.No wind54%29.86 "Hg10 mi
1:53 AM62 °FMostly cloudy.No wind54%29.84 "Hg10 mi
12:53 AM59 °FPassing clouds.5 mph58%29.84 "Hg10 mi
11:53 PM
Sep 18
63 °FPassing clouds.3 mph50%29.84 "Hg10 mi
10:53 PM65 °FMostly cloudy.3 mph45%29.83 "Hg10 mi
9:53 PM63 °FClear.6 mph47%29.82 "Hg10 mi
8:53 PM70 °FPassing clouds.14 mph37%29.78 "Hg10 mi
7:53 PM73 °FPartly sunny.13 mph30%29.75 "Hg10 mi
6:53 PM76 °FSunny.14 mph27%29.71 "Hg10 mi
5:53 PM80 °FHaze.15 mph26%29.69 "Hg6 mi
4:53 PM81 °FScattered clouds.12 mph27%29.68 "Hg6 mi
Weather by CustomWeather, © 2014

See weather overviewHow to use our weather pages